,,PA_Meas_PMT16A,,PR_Meas_QMR101_102,,RH_Meas_QMH101,,SR_Meas_QMS101,,TA_Meas_QMH101,,GenWind,,GenWind,
time,status,PA,status,PR,status,RH,status,SR,status,TA,status,DirAvg,status,SpdAvg,
2016-12-25, 15:10:04,VALID,918.362,VALID,0,INVALID,127.486,VALID,149.666,VALID,20.6585,VALID,52,VALID,0.869531,
2016-12-25, 15:11:04,VALID,918.352,VALID,0,INVALID,127.494,VALID,159.12,VALID,20.717,VALID,322,VALID,0,
2016-12-25, 15:12:04,VALID,918.385,VALID,0,INVALID,127.098,VALID,158.691,VALID,20.6975,VALID,163,VALID,0,
2016-12-25, 15:27:04,VALID,918.577,VALID,0,INVALID,124.864,VALID,149.128,VALID,20.8746,VALID,158,VALID,0,
2016-12-25, 15:28:04,VALID,918.604,VALID,0,INVALID,125.001,VALID,153.319,VALID,20.9527,VALID,216,VALID,0,
2016-12-25, 15:29:04,VALID,918.624,VALID,0,INVALID,124.955,VALID,148.591,VALID,20.9706,VALID,18,VALID,0,
2016-12-25, 15:30:04,VALID,918.625,VALID,0,INVALID,112.072,VALID,145.905,VALID,20.9316,VALID,269,VALID,1.49883,
2016-12-25, 15:31:04,VALID,918.609,VALID,0,VALID,103.663,VALID,147.624,VALID,20.9901,VALID,285,VALID,0.576172,
2016-12-25, 15:34:04,VALID,918.66,VALID,0,INVALID,121.616,VALID,160.625,VALID,21.0486,VALID,193,VALID,0,
2016-12-25, 15:35:04,VALID,918.685,VALID,0,INVALID,111.287,VALID,175.237,VALID,21.0096,VALID,263,VALID,1.58594,
2016-12-25, 15:36:04,VALID,918.649,VALID,0,INVALID,115.053,VALID,178.782,VALID,20.9706,VALID,242,VALID,0.0121094,
2016-12-25, 15:37:04,VALID,918.669,VALID,0,INVALID,117.233,VALID,176.526,VALID,20.9495,VALID,250,VALID,0.58125,
2016-12-25, 15:38:04,VALID,918.712,VALID,0,INVALID,119.383,VALID,169.65,VALID,20.9511,VALID,253,VALID,2.02617,
2016-12-25, 15:39:04,VALID,918.736,VALID,0,INVALID,118.422,VALID,176.848,VALID,20.912,VALID,245,VALID,0.175,
2016-12-25, 15:40:04,VALID,918.713,VALID,0,INVALID,120.61,VALID,181.361,VALID,20.93,VALID,227,VALID,0,
2016-12-25, 15:41:04,VALID,918.713,VALID,0,INVALID,114.092,VALID,172.98,VALID,20.9901,VALID,301,VALID,1.24063,
2016-12-25, 15:42:04,VALID,918.723,VALID,0,INVALID,117.812,VALID,152.674,VALID,21.0096,VALID,319,VALID,0.882031,
2016-12-25, 15:46:04,VALID,918.774,VALID,0,INVALID,120.831,VALID,165.03,VALID,21.0681,VALID,254,VALID,0,
2016-12-25, 15:47:04,VALID,918.763,VALID,0,INVALID,120.16,VALID,175.989,VALID,21.1282,VALID,288,VALID,0,
2016-12-25, 15:48:04,VALID,918.771,VALID,0,INVALID,118.536,VALID,168.253,VALID,21.164,VALID,272,VALID,0,
2016-12-25, 15:49:04,VALID,918.803,VALID,0,INVALID,115.228,VALID,158.905,VALID,21.1836,VALID,301,VALID,0,
2016-12-25, 15:50:04,VALID,918.815,VALID,0,INVALID,115.609,VALID,172.658,VALID,21.1836,VALID,258,VALID,0,
2016-12-25, 15:51:04,VALID,918.841,VALID,0,INVALID,119.688,VALID,187.27,VALID,21.2031,VALID,257,VALID,0,
2016-12-25, 15:52:04,VALID,918.826,VALID,0,INVALID,116.654,VALID,201.022,VALID,21.2226,VALID,244,VALID,0.173047,
2016-12-25, 15:53:04,VALID,918.817,VALID,0,INVALID,115.701,VALID,200.055,VALID,21.2421,VALID,297,VALID,0.0195313,
2016-12-25, 15:54:04,VALID,918.818,VALID,0,INVALID,118.918,VALID,199.841,VALID,21.3201,VALID,243,VALID,0,
2016-12-25, 15:55:04,VALID,918.79,VALID,0,INVALID,116.356,VALID,207.147,VALID,21.3981,VALID,314,VALID,0.00273437,
2016-12-25, 15:56:04,VALID,918.82,VALID,0,INVALID,115.548,VALID,214.238,VALID,21.4762,VALID,240,VALID,0,
2016-12-25, 15:57:04,VALID,918.783,VALID,0,VALID,104,VALID,219.825,VALID,21.5347,VALID,341,VALID,0,
2016-12-25, 15:58:04,VALID,918.788,VALID,0,VALID,103.191,VALID,232.288,VALID,21.5737,VALID,259,VALID,0,
2016-12-25, 15:59:04,VALID,918.798,VALID,0,INVALID,112.095,VALID,237.015,VALID,21.5347,VALID,288,VALID,0,
2016-12-25, 16:00:04,VALID,918.822,VALID,0,INVALID,113.444,VALID,237.23,VALID,21.5542,VALID,256,VALID,0,
2016-12-25, 16:01:04,VALID,918.834,VALID,0,INVALID,114.115,VALID,246.255,VALID,21.5949,VALID,254,VALID,0,
2016-12-25, 16:02:04,VALID,918.813,VALID,0,INVALID,119.047,VALID,262.479,VALID,21.6339,VALID,256,VALID,0,
2016-12-25, 16:03:04,VALID,918.815,VALID,0,INVALID,117.911,VALID,274.297,VALID,21.6924,VALID,357,VALID,0,
2016-12-25, 16:04:04,VALID,918.79,VALID,0,INVALID,114.801,VALID,282.785,VALID,21.751,VALID,1,VALID,0,
2016-12-25, 16:05:04,VALID,918.824,VALID,0,INVALID,111.424,VALID,288.05,VALID,21.829,VALID,360,VALID,0.8375,
2016-12-25, 16:06:04,VALID,918.847,VALID,0,INVALID,112.705,VALID,290.521,VALID,21.8876,VALID,329,VALID,0.0410156,
2016-12-25, 16:07:04,VALID,918.839,VALID,0,VALID,101.826,VALID,291.058,VALID,21.8859,VALID,258,VALID,0,
2016-12-25, 16:08:04,VALID,918.81,VALID,0,INVALID,114.252,VALID,292.992,VALID,21.964,VALID,14,VALID,0.566016,
2016-12-25, 16:09:04,VALID,918.866,VALID,0,INVALID,114.382,VALID,297.182,VALID,22.042,VALID,325,VALID,0,
2016-12-25, 16:10:04,VALID,918.885,VALID,0,INVALID,113.955,VALID,300.191,VALID,22.1786,VALID,284,VALID,0.245312,
2016-12-25, 16:11:04,VALID,918.863,VALID,0,INVALID,113.055,VALID,293.852,VALID,22.2567,VALID,20,VALID,0,
2016-12-25, 16:12:04,VALID,918.919,VALID,0,INVALID,109.236,VALID,287.19,VALID,22.3542,VALID,16,VALID,0,
2016-12-25, 16:13:04,VALID,918.903,VALID,0,INVALID,109.167,VALID,287.835,VALID,22.4713,VALID,347,VALID,0,
2016-12-25, 16:14:04,VALID,918.921,VALID,0,VALID,100.743,VALID,281.818,VALID,22.5494,VALID,18,VALID,0,
2016-12-25, 16:15:04,VALID,918.966,VALID,0,VALID,91.7478,VALID,264.52,VALID,22.5689,VALID,327,VALID,0,
2016-12-25, 16:16:04,VALID,918.964,VALID,0,VALID,92.2357,VALID,246.47,VALID,22.5494,VALID,277,VALID,0,
2016-12-25, 16:17:04,VALID,918.978,VALID,0,VALID,90.7949,VALID,230.676,VALID,22.5689,VALID,28,VALID,0,
2016-12-25, 16:18:04,VALID,918.993,VALID,0,VALID,92.4568,VALID,219.932,VALID,22.6274,VALID,8,VALID,0,
2016-12-25, 16:19:04,VALID,918.996,VALID,0,VALID,96.2837,VALID,222.618,VALID,22.5689,VALID,29,VALID,0,
2016-12-25, 16:20:04,VALID,918.994,VALID,0,VALID,98.3497,VALID,228.85,VALID,22.5494,VALID,355,VALID,0.146875,
2016-12-25, 16:21:04,VALID,919.036,VALID,0,VALID,97.1986,VALID,208.114,VALID,22.4891,VALID,34,VALID,0.0183594,
2016-12-25, 16:22:04,VALID,919.038,VALID,0,VALID,98.1972,VALID,195.221,VALID,22.5299,VALID,18,VALID,0.00117188,
2016-12-25, 16:23:04,VALID,919.031,VALID,0,INVALID,117.995,VALID,195.543,VALID,22.6079,VALID,6,VALID,1.06992,
2016-12-25, 16:24:04,VALID,919.046,VALID,0,VALID,100.545,VALID,196.08,VALID,22.4696,VALID,2,VALID,0.661328,
2016-12-25, 16:25:04,VALID,919.054,VALID,0,INVALID,113.078,VALID,216.386,VALID,22.4111,VALID,11,VALID,0.0015625,
2016-12-25, 16:26:04,VALID,919.08,VALID,0,INVALID,114.893,VALID,225.304,VALID,22.4713,VALID,340,VALID,0,
2016-12-25, 16:27:04,VALID,919.034,VALID,0,VALID,93.1353,VALID,218.213,VALID,22.4306,VALID,15,VALID,2.37344,
2016-12-25, 16:28:04,VALID,919.058,VALID,0,VALID,100.492,VALID,245.073,VALID,22.3135,VALID,14,VALID,2.95742,
2016-12-25, 16:29:04,VALID,919.079,VALID,0,INVALID,112.476,VALID,268.925,VALID,22.255,VALID,8,VALID,0.452734,
2016-12-25, 16:30:04,VALID,919.093,VALID,0,INVALID,116.478,VALID,270.967,VALID,22.2176,VALID,352,VALID,0.957031,
2016-12-25, 16:31:04,VALID,919.104,VALID,0,VALID,95.0488,VALID,261.189,VALID,22.1786,VALID,12,VALID,0.574609,
2016-12-25, 16:32:04,VALID,919.096,VALID,0,VALID,104,VALID,237.445,VALID,22.1786,VALID,22,VALID,1.09453,
2016-12-25, 16:33:04,VALID,919.127,VALID,0,INVALID,114.519,VALID,221.759,VALID,22.1981,VALID,11,VALID,2.23633,
2016-12-25, 16:34:04,VALID,919.122,VALID,0,VALID,104,VALID,231.213,VALID,22.1201,VALID,14,VALID,1.31055,
2016-12-25, 16:35:04,VALID,919.156,VALID,0,INVALID,117.957,VALID,225.412,VALID,22.1396,VALID,345,VALID,0.258984,
2016-12-25, 16:36:04,VALID,919.089,VALID,0,INVALID,118.293,VALID,214.13,VALID,22.1786,VALID,23,VALID,0.622266,
2016-12-25, 16:37:04,VALID,919.1,VALID,0,INVALID,119.101,VALID,209.94,VALID,22.2354,VALID,18,VALID,1.67617,
2016-12-25, 16:38:04,VALID,919.051,VALID,0,INVALID,115.419,VALID,213.271,VALID,22.2762,VALID,344,VALID,1.61016,
2016-12-25, 16:39:04,VALID,919.057,VALID,0,INVALID,115.38,VALID,202.849,VALID,22.2567,VALID,11,VALID,1.47734,
2016-12-25, 16:40:04,VALID,919.04,VALID,0,INVALID,111.767,VALID,208.866,VALID,22.2567,VALID,13,VALID,1.6125,
2016-12-25, 16:41:04,VALID,919.057,VALID,0,INVALID,110.196,VALID,221.866,VALID,22.2762,VALID,30,VALID,1.31055,
2016-12-25, 16:42:04,VALID,919.024,VALID,0,INVALID,112.255,VALID,241.528,VALID,22.3152,VALID,21,VALID,1.2043,
2016-12-25, 16:43:04,VALID,919.034,VALID,0,INVALID,116.722,VALID,265.702,VALID,22.3737,VALID,15,VALID,1.56016,
2016-12-25, 16:44:04,VALID,919.007,VALID,0,VALID,104,VALID,274.405,VALID,22.3737,VALID,334,VALID,0.945703,
2016-12-25, 16:45:04,VALID,919.013,VALID,0,INVALID,110.524,VALID,262.371,VALID,22.3542,VALID,15,VALID,1.62227,
2016-12-25, 16:46:04,VALID,919.035,VALID,0,INVALID,114.168,VALID,244.966,VALID,22.372,VALID,13,VALID,1.6875,
2016-12-25, 16:47:04,VALID,919.004,VALID,0,VALID,97.7779,VALID,239.701,VALID,22.333,VALID,23,VALID,1.58047,
2016-12-25, 16:48:04,VALID,918.968,VALID,0,VALID,100.507,VALID,236.263,VALID,22.2762,VALID,313,VALID,0.766406,
2016-12-25, 16:49:04,VALID,919.015,VALID,0,INVALID,114.252,VALID,234.866,VALID,22.2762,VALID,32,VALID,0.183594,
2016-12-25, 16:50:04,VALID,918.973,VALID,0,VALID,99.6304,VALID,230.139,VALID,22.3152,VALID,357,VALID,2.60195,
2016-12-25, 16:51:04,VALID,918.968,VALID,0,INVALID,115.053,VALID,225.626,VALID,22.3152,VALID,17,VALID,1.63125,
2016-12-25, 16:52:04,VALID,918.927,VALID,0,INVALID,111.195,VALID,224.122,VALID,22.3347,VALID,15,VALID,1.46211,
2016-12-25, 16:53:04,VALID,918.951,VALID,0,VALID,93.2268,VALID,232.073,VALID,22.3347,VALID,17,VALID,1.04336,
2016-12-25, 16:54:04,VALID,918.949,VALID,0,VALID,98.5174,VALID,250.123,VALID,22.3135,VALID,25,VALID,1.00937,
2016-12-25, 16:55:04,VALID,918.967,VALID,0,VALID,103.091,VALID,274.62,VALID,22.333,VALID,16,VALID,0.805859,
2016-12-25, 16:56:04,VALID,918.926,VALID,0,INVALID,114.641,VALID,304.381,VALID,22.3916,VALID,13,VALID,0.638672,
2016-12-25, 16:57:04,VALID,918.959,VALID,0,VALID,102.924,VALID,319.1,VALID,22.4696,VALID,11,VALID,0.297656,
2016-12-25, 16:58:04,VALID,918.93,VALID,0,VALID,93.3335,VALID,320.39,VALID,22.4891,VALID,16,VALID,1.19141,
2016-12-25, 16:59:04,VALID,918.959,VALID,0,VALID,90.429,VALID,309.323,VALID,22.3916,VALID,320,VALID,0.720703,
2016-12-25, 17:00:04,VALID,918.965,VALID,0,VALID,98.8071,VALID,286.653,VALID,22.4111,VALID,6,VALID,0,
2016-12-25, 17:01:04,VALID,918.981,VALID,0,VALID,98.5631,VALID,276.446,VALID,22.5281,VALID,333,VALID,0,
2016-12-25, 17:02:04,VALID,918.931,VALID,0,VALID,89.6742,VALID,280.099,VALID,22.5477,VALID,321,VALID,0.415234,
2016-12-25, 17:03:04,VALID,918.909,VALID,0,VALID,96.7488,VALID,291.166,VALID,22.6062,VALID,45,VALID,0.00273437,
2016-12-25, 17:04:04,VALID,918.854,VALID,0,VALID,90.185,VALID,296.645,VALID,22.6257,VALID,278,VALID,0,
2016-12-25, 17:05:04,VALID,918.889,VALID,0,VALID,94.3626,VALID,293.959,VALID,22.6843,VALID,2,VALID,1.30586,
2016-12-25, 17:06:04,VALID,918.874,VALID,0,VALID,94.2254,VALID,300.513,VALID,22.6647,VALID,15,VALID,0.0761719,
2016-12-25, 17:07:04,VALID,918.915,VALID,0,VALID,97.6483,VALID,312.976,VALID,22.7428,VALID,18,VALID,0.0289063,
2016-12-25, 17:08:04,VALID,918.828,VALID,0,VALID,87.1738,VALID,318.778,VALID,22.7836,VALID,21,VALID,1.89297,
2016-12-25, 17:09:04,VALID,918.861,VALID,0,VALID,86.6935,VALID,311.364,VALID,22.7836,VALID,29,VALID,1.7918,
2016-12-25, 17:10:04,VALID,918.852,VALID,0,VALID,91.1837,VALID,320.604,VALID,22.8209,VALID,1,VALID,1.11523,
2016-12-25, 17:11:04,VALID,918.802,VALID,0,VALID,87.1814,VALID,341.555,VALID,22.8599,VALID,33,VALID,1.09414,
2016-12-25, 17:12:04,VALID,918.853,VALID,0,VALID,88.7518,VALID,353.696,VALID,22.9185,VALID,335,VALID,0.989453,
2016-12-25, 17:13:04,VALID,918.8,VALID,0,VALID,85.8854,VALID,365.622,VALID,22.8404,VALID,277,VALID,0.0488281,
2016-12-25, 17:14:04,VALID,918.79,VALID,0,VALID,90.4747,VALID,378.623,VALID,22.8794,VALID,12,VALID,0.562891,
2016-12-25, 17:15:04,VALID,918.729,VALID,0,VALID,87.3491,VALID,391.516,VALID,22.977,VALID,9,VALID,1.24531,
2016-12-25, 17:16:04,VALID,918.762,VALID,0,VALID,87.5244,VALID,395.491,VALID,23.0551,VALID,19,VALID,0.584375,
2016-12-25, 17:17:04,VALID,918.761,VALID,0,VALID,85.3975,VALID,397.425,VALID,23.1527,VALID,41,VALID,0.0105469,
2016-12-25, 17:18:04,VALID,918.755,VALID,0,VALID,85.0163,VALID,390.119,VALID,23.2502,VALID,9,VALID,0,
2016-12-25, 17:19:04,VALID,918.717,VALID,0,VALID,84.2235,VALID,409.888,VALID,23.2893,VALID,298,VALID,0.000390625,
2016-12-25, 17:20:04,VALID,918.716,VALID,0,VALID,83.5603,VALID,426.541,VALID,23.3869,VALID,349,VALID,0.046875,
2016-12-25, 17:21:04,VALID,918.699,VALID,0,VALID,81.8069,VALID,433.632,VALID,23.4437,VALID,114,VALID,0,
2016-12-25, 17:22:04,VALID,918.698,VALID,0,VALID,82.1194,VALID,408.706,VALID,23.504,VALID,109,VALID,0,
2016-12-25, 17:23:04,VALID,918.69,VALID,0,VALID,81.2351,VALID,442.12,VALID,23.5821,VALID,216,VALID,0.76875,
2016-12-25, 17:24:04,VALID,918.702,VALID,0,VALID,81.662,VALID,431.161,VALID,23.5235,VALID,341,VALID,0.160547,
2016-12-25, 17:25:04,VALID,918.648,VALID,0,VALID,81.0826,VALID,424.93,VALID,23.465,VALID,21,VALID,1.58633,
2016-12-25, 17:26:04,VALID,918.594,VALID,0,VALID,81.7916,VALID,418.268,VALID,23.4632,VALID,13,VALID,0.782031,
2016-12-25, 17:27:04,VALID,918.557,VALID,0,VALID,83.5298,VALID,410.748,VALID,23.4827,VALID,13,VALID,1.18281,
2016-12-25, 17:28:04,VALID,918.565,VALID,0,VALID,84.0558,VALID,399.681,VALID,23.5217,VALID,20,VALID,0.867578,
2016-12-25, 17:29:04,VALID,918.566,VALID,0,VALID,83.5984,VALID,386.036,VALID,23.6193,VALID,336,VALID,0.372266,
2016-12-25, 17:30:04,VALID,918.508,VALID,0,VALID,80.4118,VALID,380.986,VALID,23.4632,VALID,349,VALID,1.05859,
2016-12-25, 17:31:04,VALID,918.534,VALID,0,VALID,82.8894,VALID,389.904,VALID,23.3674,VALID,360,VALID,1.4207,
2016-12-25, 17:32:04,VALID,918.543,VALID,0,VALID,83.4002,VALID,367.449,VALID,23.3674,VALID,7,VALID,2.86641,
2016-12-25, 17:33:04,VALID,918.51,VALID,0,VALID,82.9961,VALID,378.193,VALID,23.3869,VALID,335,VALID,1.74883,
2016-12-25, 17:34:04,VALID,918.488,VALID,0,VALID,82.8208,VALID,381.953,VALID,23.3088,VALID,14,VALID,1.95273,
2016-12-25, 17:35:04,VALID,918.473,VALID,0,VALID,84.2464,VALID,387.648,VALID,23.2698,VALID,22,VALID,1.0375,
2016-12-25, 17:36:04,VALID,918.454,VALID,0,VALID,82.0661,VALID,386.466,VALID,23.2698,VALID,19,VALID,2.425,
2016-12-25, 17:37:04,VALID,918.465,VALID,0,VALID,84.437,VALID,372.713,VALID,23.1917,VALID,9,VALID,1.80547,
2016-12-25, 17:38:04,VALID,918.487,VALID,0,VALID,86.5182,VALID,377.871,VALID,23.1527,VALID,9,VALID,1.49961,
2016-12-25, 17:39:04,VALID,918.399,VALID,0,VALID,84.8181,VALID,357.134,VALID,23.1527,VALID,7,VALID,0.999219,
2016-12-25, 17:40:04,VALID,918.395,VALID,0,VALID,83.2553,VALID,367.664,VALID,23.1917,VALID,263,VALID,0.196484,
2016-12-25, 17:41:04,VALID,918.389,VALID,0,VALID,84.5818,VALID,389.367,VALID,23.2698,VALID,10,VALID,2.29297,
2016-12-25, 17:42:04,VALID,918.436,VALID,0,VALID,83.8804,VALID,332.745,VALID,23.3088,VALID,18,VALID,2.68555,
2016-12-25, 17:43:04,VALID,918.439,VALID,0,VALID,82.8055,VALID,328.018,VALID,23.2307,VALID,10,VALID,1.63398,
2016-12-25, 17:44:04,VALID,918.446,VALID,0,VALID,82.8894,VALID,336.183,VALID,23.1314,VALID,19,VALID,2.82734,
2016-12-25, 17:45:04,VALID,918.485,VALID,0,VALID,82.7217,VALID,373.036,VALID,23.1722,VALID,12,VALID,1.14492,
2016-12-25, 17:46:04,VALID,918.432,VALID,0,VALID,81.9212,VALID,316.737,VALID,23.0941,VALID,23,VALID,1.35977,
2016-12-25, 17:47:04,VALID,918.416,VALID,0,VALID,83.6517,VALID,332.315,VALID,23.1136,VALID,43,VALID,0.689453,
2016-12-25, 17:48:04,VALID,918.419,VALID,0,VALID,84.5056,VALID,443.517,VALID,23.1722,VALID,14,VALID,1.75195,
2016-12-25, 17:49:04,VALID,918.411,VALID,0,VALID,85.8702,VALID,476.394,VALID,23.3478,VALID,47,VALID,0,
2016-12-25, 17:50:04,VALID,918.444,VALID,0,VALID,82.028,VALID,728.773,VALID,23.5821,VALID,345,VALID,1.01484,
2016-12-25, 17:51:04,VALID,918.327,VALID,0,VALID,79.1539,VALID,767.345,VALID,23.6406,VALID,6,VALID,2.54648,
2016-12-25, 17:52:04,VALID,918.389,VALID,0,VALID,82.432,VALID,794.098,VALID,23.6992,VALID,22,VALID,1.09258,
2016-12-25, 17:53:04,VALID,918.373,VALID,0,VALID,81.6163,VALID,420.632,VALID,23.953,VALID,14,VALID,2.80898,
2016-12-25, 17:54:04,VALID,918.37,VALID,0,VALID,80.1907,VALID,722.971,VALID,24.1482,VALID,354,VALID,0.00078125,
2016-12-25, 17:55:04,VALID,918.347,VALID,0,VALID,78.4602,VALID,805.379,VALID,24.3044,VALID,359,VALID,1.28633,
2016-12-25, 17:56:04,VALID,918.377,VALID,0,VALID,77.9952,VALID,522.486,VALID,24.4606,VALID,220,VALID,0.00351562,
2016-12-25, 17:57:04,VALID,918.331,VALID,0,VALID,77.0194,VALID,614.241,VALID,24.7144,VALID,345,VALID,0.0855469,
2016-12-25, 17:58:04,VALID,918.341,VALID,0,VALID,78.5745,VALID,469.41,VALID,24.8511,VALID,351,VALID,0.735547,
2016-12-25, 17:59:04,VALID,918.301,VALID,0,VALID,78.8414,VALID,524.528,VALID,24.8511,VALID,10,VALID,2.19453,
2016-12-25, 18:00:04,VALID,918.265,VALID,0,VALID,74.8162,VALID,713.517,VALID,24.7321,VALID,2,VALID,1.93477,
2016-12-25, 18:01:04,VALID,917.946,VALID,0,VALID,76.1884,VALID,1059.05,VALID,24.4801,VALID,13,VALID,5.73359,
2016-12-25, 18:02:04,VALID,918.26,VALID,0,VALID,77.0041,VALID,595.546,VALID,24.3221,VALID,30,VALID,1.17891,
2016-12-25, 18:03:04,VALID,918.294,VALID,0,VALID,80.6405,VALID,1074.2,VALID,24.4392,VALID,4,VALID,1.69687,
2016-12-25, 18:04:04,VALID,918.266,VALID,0,VALID,76.2799,VALID,560.628,VALID,24.6168,VALID,21,VALID,1.65,
2016-12-25, 18:05:04,VALID,918.267,VALID,0,VALID,79.436,VALID,372.069,VALID,24.8297,VALID,17,VALID,1.76094,
2016-12-25, 18:06:04,VALID,918.26,VALID,0,VALID,75.8911,VALID,285.793,VALID,25.1617,VALID,14,VALID,0.439844,
2016-12-25, 18:07:04,VALID,918.245,VALID,0,VALID,73.8252,VALID,279.025,VALID,25.1031,VALID,355,VALID,3.32617,
2016-12-25, 18:08:04,VALID,918.241,VALID,0,VALID,76.196,VALID,376.689,VALID,24.7516,VALID,19,VALID,1.98359,
2016-12-25, 18:09:04,VALID,918.241,VALID,0,VALID,75.2355,VALID,798.073,VALID,24.6149,VALID,323,VALID,0.0359375,
2016-12-25, 18:10:04,VALID,918.231,VALID,0,VALID,76.1884,VALID,424.5,VALID,24.5759,VALID,357,VALID,0,
2016-12-25, 18:11:04,VALID,918.217,VALID,0,VALID,76.257,VALID,350.58,VALID,24.6149,VALID,256,VALID,0.0503906,
2016-12-25, 18:12:04,VALID,918.205,VALID,0,VALID,77.9723,VALID,768.204,VALID,24.7321,VALID,337,VALID,0,
2016-12-25, 18:13:04,VALID,918.15,VALID,0,VALID,76.5925,VALID,325.547,VALID,24.8688,VALID,13,VALID,0.611328,
2016-12-25, 18:14:04,VALID,918.131,VALID,0,VALID,75.1516,VALID,726.517,VALID,25.025,VALID,214,VALID,0.446484,
2016-12-25, 18:15:04,VALID,918.129,VALID,0,VALID,76.5467,VALID,739.947,VALID,25.1617,VALID,110,VALID,0.0195313,
2016-12-25, 18:16:04,VALID,918.119,VALID,0,VALID,74.5951,VALID,792.271,VALID,25.2593,VALID,198,VALID,0.430859,
2016-12-25, 18:17:04,VALID,918.156,VALID,0,VALID,73.6727,VALID,796.246,VALID,25.2984,VALID,149,VALID,0.00078125,
2016-12-25, 18:18:04,VALID,918.142,VALID,0,VALID,69.4265,VALID,772.502,VALID,25.2593,VALID,261,VALID,0.938672,
2016-12-25, 18:19:04,VALID,918.125,VALID,0,VALID,73.6117,VALID,720.285,VALID,25.2203,VALID,341,VALID,0.2,
2016-12-25, 18:20:04,VALID,918.106,VALID,0,VALID,72.3386,VALID,818.057,VALID,25.3746,VALID,147,VALID,0,
2016-12-25, 18:21:04,VALID,918.078,VALID,0,VALID,74.4503,VALID,779.056,VALID,25.5698,VALID,19,VALID,0.133984,
2016-12-25, 18:22:04,VALID,918.07,VALID,0,VALID,70.5471,VALID,751.014,VALID,25.689,VALID,343,VALID,1.17656,
2016-12-25, 18:23:04,VALID,918.037,VALID,0,VALID,70.9588,VALID,762.51,VALID,25.5308,VALID,20,VALID,3.14492,
2016-12-25, 18:24:04,VALID,918.056,VALID,0,VALID,73.2915,VALID,762.725,VALID,25.2379,VALID,13,VALID,2.77734,
2016-12-25, 18:25:04,VALID,918.012,VALID,0,VALID,74.4122,VALID,741.774,VALID,25.2769,VALID,21,VALID,2.24297,
2016-12-25, 18:26:04,VALID,917.948,VALID,0,VALID,76.0512,VALID,801.726,VALID,25.4741,VALID,26,VALID,1.93945,
2016-12-25, 18:27:04,VALID,918.021,VALID,0,VALID,71.3171,VALID,789.478,VALID,25.6089,VALID,288,VALID,0.0890625,
2016-12-25, 18:28:04,VALID,918.002,VALID,0,VALID,73.4059,VALID,737.691,VALID,25.5308,VALID,359,VALID,0.000390625,
2016-12-25, 18:29:04,VALID,917.995,VALID,0,VALID,72.6893,VALID,702.558,VALID,25.7476,VALID,308,VALID,0,
2016-12-25, 18:30:04,VALID,917.986,VALID,0,VALID,73.1924,VALID,678.706,VALID,25.9624,VALID,34,VALID,1.78828,
2016-12-25, 18:31:04,VALID,917.883,VALID,0,VALID,69.556,VALID,680.747,VALID,25.982,VALID,17,VALID,3.50664,
2016-12-25, 18:32:04,VALID,917.945,VALID,0,VALID,71.3933,VALID,702.45,VALID,25.7476,VALID,300,VALID,0.815234,
2016-12-25, 18:33:04,VALID,917.966,VALID,0,VALID,71.0121,VALID,696.971,VALID,25.7866,VALID,194,VALID,0.529688,
2016-12-25, 18:34:04,VALID,917.939,VALID,0,VALID,70.4556,VALID,718.244,VALID,25.9429,VALID,1,VALID,0.178125,
2016-12-25, 18:35:04,VALID,917.964,VALID,0,VALID,70.1964,VALID,712.12,VALID,26.021,VALID,326,VALID,0.0640625,
2016-12-25, 18:36:04,VALID,917.975,VALID,0,VALID,72.0565,VALID,737.046,VALID,25.9038,VALID,40,VALID,1.55,
2016-12-25, 18:37:04,VALID,917.9,VALID,0,VALID,72.0337,VALID,717.277,VALID,26.0015,VALID,24,VALID,1.50977,
2016-12-25, 18:38:04,VALID,917.96,VALID,0,VALID,74.0691,VALID,742.096,VALID,26.1187,VALID,41,VALID,0.821875,
2016-12-25, 18:39:04,VALID,917.944,VALID,0,VALID,70.4861,VALID,746.179,VALID,25.9429,VALID,21,VALID,2.4293,
2016-12-25, 18:40:04,VALID,917.948,VALID,0,VALID,71.3399,VALID,767.989,VALID,25.9214,VALID,12,VALID,1.61133,
2016-12-25, 18:41:04,VALID,917.935,VALID,0,VALID,66.2399,VALID,658.722,VALID,25.8823,VALID,325,VALID,1.26758,
2016-12-25, 18:42:04,VALID,917.928,VALID,0,VALID,69.5865,VALID,822.032,VALID,25.5308,VALID,357,VALID,3.36133,
2016-12-25, 18:43:04,VALID,917.96,VALID,0,VALID,73.4821,VALID,679.888,VALID,25.3179,VALID,2,VALID,1.44492,
2016-12-25, 18:44:04,VALID,917.892,VALID,0,VALID,73.6956,VALID,551.066,VALID,25.4546,VALID,11,VALID,2.4543,
2016-12-25, 18:45:04,VALID,917.909,VALID,0,VALID,72.735,VALID,781.097,VALID,25.5894,VALID,27,VALID,0.865625,
2016-12-25, 18:46:04,VALID,917.961,VALID,0,VALID,68.8471,VALID,715.558,VALID,25.5503,VALID,264,VALID,1.16406,
2016-12-25, 18:47:04,VALID,917.937,VALID,0,VALID,71.1951,VALID,719.963,VALID,25.3355,VALID,35,VALID,0.761328,
2016-12-25, 18:48:04,VALID,917.866,VALID,0,VALID,72.209,VALID,750.369,VALID,25.2379,VALID,12,VALID,2.0543,
2016-12-25, 18:49:04,VALID,917.981,VALID,0,VALID,72.3157,VALID,659.151,VALID,25.1617,VALID,268,VALID,0.215234,
2016-12-25, 18:50:04,VALID,917.892,VALID,0,VALID,71.744,VALID,695.144,VALID,25.1988,VALID,48,VALID,1.69922,
2016-12-25, 18:51:04,VALID,917.941,VALID,0,VALID,71.7363,VALID,544.512,VALID,25.316,VALID,349,VALID,1.05313,
2016-12-25, 18:52:04,VALID,917.937,VALID,0,VALID,72.8112,VALID,663.127,VALID,25.2379,VALID,2,VALID,1.80547,
2016-12-25, 18:53:04,VALID,917.969,VALID,0,VALID,69.5942,VALID,673.119,VALID,25.3374,VALID,295,VALID,0.453125,
2016-12-25, 18:54:04,VALID,917.994,VALID,0,VALID,69.6628,VALID,722.219,VALID,25.2965,VALID,259,VALID,0.746094,
2016-12-25, 18:55:04,VALID,917.831,VALID,0,VALID,71.3094,VALID,614.134,VALID,25.396,VALID,78,VALID,0.0507813,
2016-12-25, 18:56:04,VALID,917.852,VALID,0,VALID,71.6906,VALID,703.31,VALID,25.4917,VALID,28,VALID,0.551172,
2016-12-25, 18:57:04,VALID,917.92,VALID,0,VALID,72.6893,VALID,774.006,VALID,25.5698,VALID,316,VALID,0.555859,
2016-12-25, 18:58:04,VALID,917.91,VALID,0,VALID,72.148,VALID,752.518,VALID,25.648,VALID,278,VALID,0.329297,
2016-12-25, 18:59:04,VALID,917.893,VALID,0,VALID,72.5139,VALID,673.441,VALID,25.8433,VALID,45,VALID,0,
2016-12-25, 19:00:04,VALID,917.876,VALID,0,VALID,70.6767,VALID,659.151,VALID,26.0406,VALID,2,VALID,1.44141,
2016-12-25, 19:01:04,VALID,917.82,VALID,0,VALID,69.5027,VALID,605.861,VALID,25.9995,VALID,15,VALID,3.19258,
2016-12-25, 19:02:04,VALID,917.825,VALID,0,VALID,69.5865,VALID,540.859,VALID,25.8648,VALID,14,VALID,1.95234,
2016-12-25, 19:03:04,VALID,917.72,VALID,0,VALID,70.631,VALID,627.456,VALID,25.8628,VALID,9,VALID,2.47305,
2016-12-25, 19:04:04,VALID,917.739,VALID,0,VALID,70.387,VALID,440.294,VALID,25.9995,VALID,21,VALID,1.24648,
2016-12-25, 19:05:04,VALID,917.768,VALID,0,VALID,67.7112,VALID,462.427,VALID,26.0386,VALID,323,VALID,0.599609,